Volver al catálogo

USA 522

ActivoMilitarLEO
NORAD 63597·PAYLOAD·🇺🇸 United States

Lanzado Apr 16, 2025 desde Vandenberg Space Force Base

Loading…

Próximos Pases (próximas 24 horas)

TLE

ObsoletoSource: Mike McCants

Época: Nov 13, 2025, 04:44 UTC

1 63597U 25077B   25317.19739246 0.00000000  00000-0  00000-0 0    03
2 63597  63.3855  42.8714 0020000 291.6239  68.3761 13.39285860    08

Sigue USA 522 en tiempo real con AllMySat

Download on the App Store